Location: Larkspur
(54.4391°N, 113.7691°W)
Time: 13:51:06
(UTC+00:00)

METEOR M2 - Pass Details

Date: 08 December 2023
Orbit: 819 x 826 km, 98.4° (Epoch: 02 March)

Event Time Altitude Azimuth Distance (km) Brightness Sun altitude
Rises 14:02:09 0° 14° (NNE) 3,375 ? -13.4°
Reaches altitude 10° 14:04:31 10° 13° (NNE) 2,437 ? -13.1°
Maximum altitude 14:09:53 74° 290° (WNW) 861 ? -12.4°
Drops below altitude 10° 14:15:13 10° 206° (SSW) 2,415 ? -11.7°
Sets 14:17:34 0° 205° (SSW) 3,343 ? -11.3°
